User: anonymous   Login
Location: Mentone
(34.5413°N, 85.5351°W)
Time: 08:31:51
(UTC-06:00)
Language:

Transit 2A Rocket - Orbit

View from above orbital plane
View from above orbital plane
View from above satellite
View from above satellite

Ground track
Ground track

The orbit data is extracted from the following two-line orbital elements,

1 00047U 60007C   14326.83138408  .00000340  00000-0  10124-3 0  3649
2 00047 066.6653 190.9282 0231593 348.8821 010.7211 14.41357894841947
Epoch (UTC): 22 November 2014 19:57:11
Eccentricity: 0.0231593
inclination: 66.6653°
perigee height: 589 km
apogee height: 919 km
right ascension of ascending node: 190.9282°
argument of perigee: 348.8821°
revolutions per day: 14.41357894
mean anomaly at epoch: 10.7211°
orbit number at epoch: 84194

The dashed part of the orbit path shows where the satellite is in the earth's shadow,  

DLR